Weather History for KPNA - July, 2013

Change the Weather History Date:

Saturday, July 6, 2013

  Actual Average (KBPI) Record (KBPI)
Temperature  
Mean Temperature 60 °F 61 °F  
Max Temperature 78 °F 79 °F 90 °F (2007)
Min Temperature 42 °F 42 °F 28 °F (2000)
Degree Days  
Heating Degree Days 5 5  
Month to date heating degree days 32  
Since 1 June heating degree days 337  
Since 1 July heating degree days 32  
Cooling Degree Days 0 0  
Month to date cooling degree days 0  
Year to date cooling degree days 2  
Since 1 June cooling degree days 2  
Growing Degree Days 10 (Base 50)    
Moisture  
Dew Point 43 °F    
Average Humidity 59    
Maximum Humidity 100    
Minimum Humidity 22    
Precipitation  
Precipitation 0.00 in 0.02 in 0.13 in (2013)
Month to date precipitation 0.12  
Year to date precipitation 3.38  
Sea Level Pressure  
Sea Level Pressure 30.14 in    
Wind  
Wind Speed 6 mph (NNW)    
Max Wind Speed 22 mph    
Max Gust Speed 34 mph    
Visibility 10 miles    
Events Rain , Thunderstorm    
T = Trace of Precipitation, MM = Missing Value Source: NWS Daily Summary

Daily Weather History Graph

Daily Weather History Graph

Search for Another Location

Airport or City:

Trip Planner

Search our weather history database for the weather conditions in past years. The results will help you decide how hot, cold, wet, or windy it might be!

Date:

Astronomy

Jul. 06, 2013 Rise Set
Actual Time 5:47 AM MDT 9:00 PM MDT
Civil Twilight 5:13 AM MDT 9:34 PM MDT
Nautical Twilight 4:28 AM MDT 10:19 PM MDT
Astronomical Twilight 3:34 AM MDT 11:12 PM MDT
Moon 4:37 AM MDT 7:42 PM MDT
Length of Visible Light 16h 21m
Length of Day
15h 12m
Waning Crescent, 2% of the Moon is Illuminated
Jul 6
Waning Crescent
Jul 8
New
Jul 15
First Quarter
Jul 22
Full
Jul 29
Last Quarter

Hourly Weather History & Observations

Time (MDT) Temp. Windchill Dew Point Humidity Pressure Visibility Wind Dir Wind Speed Gust Speed Precip Events Conditions
12:15 AM 55.4 °F - 44.6 °F 67% 30.11 in 10.0 mi WNW 3.5 mph - N/A   Clear
12:35 AM 53.6 °F - 42.8 °F 67% 30.11 in 10.0 mi WSW 3.5 mph - N/A   Clear
12:55 AM 51.8 °F - 42.8 °F 71% 30.11 in 10.0 mi West 3.5 mph - N/A   Clear
1:15 AM 50.0 °F - 44.6 °F 82% 30.11 in 10.0 mi WNW 4.6 mph - N/A   Clear
1:35 AM 50.0 °F - 44.6 °F 82% 30.10 in 10.0 mi WNW 5.8 mph - N/A   Scattered Clouds
1:55 AM 48.2 °F - 42.8 °F 82% 30.11 in 10.0 mi West 3.5 mph - N/A   Scattered Clouds
2:15 AM 46.4 °F 44.3 °F 44.6 °F 93% 30.11 in 10.0 mi WNW 4.6 mph - N/A   Scattered Clouds
2:35 AM 46.4 °F 43.5 °F 44.6 °F 93% 30.11 in 10.0 mi NW 5.8 mph - N/A   Clear
2:55 AM 46.4 °F 43.5 °F 42.8 °F 87% 30.11 in 10.0 mi West 5.8 mph - N/A   Clear
3:15 AM 46.4 °F 43.5 °F 42.8 °F 87% 30.11 in 10.0 mi WNW 5.8 mph - N/A   Clear
3:35 AM 44.6 °F - 42.8 °F 93% 30.11 in 10.0 mi Calm Calm - N/A   Clear
3:55 AM 46.4 °F 42.9 °F 42.8 °F 87% 30.12 in 10.0 mi NW 6.9 mph - N/A   Clear
4:15 AM 44.6 °F - 42.8 °F 93% 30.13 in 10.0 mi Calm Calm - N/A   Clear
4:35 AM 44.6 °F 40.2 °F 42.8 °F 93% 30.13 in 10.0 mi NW 8.1 mph - N/A   Clear
4:55 AM 44.6 °F 42.2 °F 41.0 °F 87% 30.13 in 10.0 mi WNW 4.6 mph - N/A   Clear
5:15 AM 44.6 °F 40.7 °F 41.0 °F 87% 30.13 in 10.0 mi WNW 6.9 mph - N/A   Clear
5:35 AM 42.8 °F - 41.0 °F 93% 30.14 in 10.0 mi Calm Calm - N/A   Clear
5:55 AM 42.8 °F 40.1 °F 41.0 °F 93% 30.14 in 10.0 mi West 4.6 mph - N/A   Clear
6:15 AM 42.8 °F 40.1 °F 41.0 °F 93% 30.15 in 10.0 mi WNW 4.6 mph - N/A   Clear
6:35 AM 42.8 °F 41.1 °F 42.8 °F 100% 30.16 in 10.0 mi WNW 3.5 mph - N/A   Clear
6:55 AM 46.4 °F 45.2 °F 42.8 °F 87% 30.16 in 10.0 mi West 3.5 mph - N/A   Clear
7:15 AM 48.2 °F - 42.8 °F 82% 30.16 in 10.0 mi West 4.6 mph - N/A   Clear
7:35 AM 50.0 °F - 42.8 °F 76% 30.16 in 10.0 mi West 4.6 mph - N/A   Clear
7:55 AM 50.0 °F - 42.8 °F 76% 30.17 in 10.0 mi West 4.6 mph - N/A   Clear
8:15 AM 53.6 °F - 42.8 °F 67% 30.17 in 10.0 mi WNW 3.5 mph - N/A   Clear
8:35 AM 57.2 °F - 42.8 °F 59% 30.18 in 10.0 mi Calm Calm - N/A   Clear
8:55 AM 60.8 °F - 41.0 °F 48% 30.18 in 10.0 mi Calm Calm - N/A   Clear
9:15 AM 62.6 °F - 41.0 °F 45% 30.18 in 10.0 mi Calm Calm - N/A   Clear
9:35 AM 64.4 °F - 41.0 °F 42% 30.18 in 10.0 mi North 3.5 mph - N/A   Clear
9:55 AM 66.2 °F - 41.0 °F 40% 30.18 in 10.0 mi WNW 4.6 mph - N/A   Clear
10:15 AM 68.0 °F - 39.2 °F 35% 30.18 in 10.0 mi North 3.5 mph - N/A   Clear
10:35 AM 68.0 °F - 41.0 °F 37% 30.18 in 10.0 mi North 4.6 mph - N/A   Clear
10:55 AM 68.0 °F - 41.0 °F 37% 30.18 in 10.0 mi NNW 6.9 mph - N/A   Clear
11:15 AM 69.8 °F - 41.0 °F 35% 30.18 in 10.0 mi NNW 6.9 mph - N/A   Clear
11:35 AM 69.8 °F - 41.0 °F 35% 30.18 in 10.0 mi North 3.5 mph - N/A   Clear
11:55 AM 71.6 °F - 41.0 °F 33% 30.17 in 10.0 mi NW 8.1 mph 17.3 mph N/A   Clear
12:15 PM 71.6 °F - 41.0 °F 33% 30.16 in 10.0 mi North 5.8 mph - N/A   Clear
12:35 PM 73.4 °F - 41.0 °F 31% 30.16 in 10.0 mi North 8.1 mph - N/A   Clear
12:55 PM 77.0 °F - 41.0 °F 28% 30.15 in 10.0 mi NW 9.2 mph 16.1 mph N/A   Clear
1:15 PM 78.8 °F - 39.2 °F 24% 30.14 in 10.0 mi SE 8.1 mph - N/A   Scattered Clouds
1:35 PM 77.0 °F - 41.0 °F 28% 30.14 in 10.0 mi SE 9.2 mph - N/A   Scattered Clouds
1:55 PM 75.2 °F - 41.0 °F 29% 30.14 in 10.0 mi Calm Calm - N/A   Mostly Cloudy
2:15 PM 77.0 °F - 35.6 °F 22% 30.13 in 10.0 mi North 3.5 mph - N/A   Scattered Clouds
2:35 PM 77.0 °F - 37.4 °F 24% 30.13 in 10.0 mi ENE 5.8 mph - N/A   Scattered Clouds
2:55 PM 73.4 °F - 37.4 °F 27% 30.13 in 10.0 mi ESE 5.8 mph - N/A   Mostly Cloudy
3:15 PM 71.6 °F - 42.8 °F 35% 30.13 in 10.0 mi East 9.2 mph - N/A Rain Rain
3:35 PM 69.8 °F - 44.6 °F 40% 30.11 in 10.0 mi ENE 4.6 mph - N/A Rain Light Rain
3:55 PM 71.6 °F - 42.8 °F 35% 30.11 in 10.0 mi NNE 4.6 mph - N/A Rain Light Rain
4:15 PM 71.6 °F - 46.4 °F 41% 30.09 in 7.0 mi ENE 3.5 mph - N/A Rain Light Rain
4:35 PM 73.4 °F - 42.8 °F 33% 30.08 in 10.0 mi East 12.7 mph - N/A   Scattered Clouds
4:55 PM 75.2 °F - 39.2 °F 27% 30.08 in 10.0 mi ESE 9.2 mph - N/A   Scattered Clouds
5:15 PM 73.4 °F - 39.2 °F 29% 30.08 in 10.0 mi ESE 17.3 mph 21.9 mph N/A   Mostly Cloudy
5:35 PM 71.6 °F - 41.0 °F 33% 30.06 in 10.0 mi SE 13.8 mph 25.3 mph N/A Thunderstorm Thunderstorm
5:55 PM 64.4 °F - 46.4 °F 52% 30.08 in 10.0 mi NW 19.6 mph 27.6 mph N/A Rain , Thunderstorm Light Thunderstorms and Rain
6:15 PM 62.6 °F - 50.0 °F 63% 30.09 in 10.0 mi NW 18.4 mph 28.8 mph N/A Thunderstorm Overcast
6:35 PM 71.6 °F - 44.6 °F 38% 30.09 in 10.0 mi NNE 8.1 mph - N/A Thunderstorm Scattered Clouds
6:55 PM 71.6 °F - 42.8 °F 35% 30.09 in 10.0 mi ENE 9.2 mph - N/A   Mostly Cloudy
7:15 PM 69.8 °F - 42.8 °F 38% 30.09 in 10.0 mi ESE 9.2 mph 16.1 mph N/A   Mostly Cloudy
7:35 PM 69.8 °F - 39.2 °F 33% 30.10 in 10.0 mi SSE 12.7 mph 21.9 mph N/A Thunderstorm Thunderstorm
7:55 PM 64.4 °F - 50.0 °F 59% 30.11 in 10.0 mi NW 9.2 mph - N/A   Mostly Cloudy
8:15 PM 66.2 °F - 46.4 °F 49% 30.11 in 10.0 mi North 6.9 mph - N/A   Mostly Cloudy
8:35 PM 64.4 °F - 50.0 °F 59% 30.13 in 10.0 mi NNE 5.8 mph - N/A   Overcast
8:55 PM 64.4 °F - 46.4 °F 52% 30.17 in 10.0 mi WNW 21.9 mph 27.6 mph N/A Rain , Thunderstorm Light Thunderstorms and Rain
9:15 PM 59.0 °F - 46.4 °F 63% 30.21 in 10.0 mi NW 21.9 mph 34.5 mph N/A Thunderstorm Thunderstorm
9:35 PM 55.4 °F - 46.4 °F 72% 30.18 in 10.0 mi North 16.1 mph 28.8 mph N/A Rain , Thunderstorm Light Thunderstorms and Rain
9:55 PM 57.2 °F - 44.6 °F 63% 30.19 in 10.0 mi NE 9.2 mph - N/A   Scattered Clouds
10:15 PM 59.0 °F - 46.4 °F 63% 30.20 in 10.0 mi ESE 3.5 mph - N/A Thunderstorm Mostly Cloudy
10:35 PM 55.4 °F - 50.0 °F 82% 30.19 in 10.0 mi ESE 10.4 mph - N/A Rain Light Rain
10:55 PM 55.4 °F - 51.8 °F 88% 30.21 in 10.0 mi South 11.5 mph 16.1 mph N/A   Overcast
11:15 PM 55.4 °F - 51.8 °F 88% 30.20 in 10.0 mi SE 11.5 mph 17.3 mph N/A Rain Light Rain
11:35 PM 53.6 °F - 53.6 °F 100% 30.21 in 10.0 mi Calm Calm - N/A   Scattered Clouds
11:55 PM 55.4 °F - 51.8 °F 88% 30.22 in 10.0 mi West 3.5 mph - N/A   Overcast